Miscellaneous Local Product
Issued by NWS North Platte, NE

Home | Current Version | Previous Version | Graphics & Text | Print | Product List | Glossary On
Versions: 1 2 3 4 5 6 7 8 9 10 11 12 13 14 15 16 17 18 19 20 21 22 23 24 25 26 27 28 29 30 31 32 33 34 35 36 37 38 39 40 41 42 43 44 45 46 47 48 49 50
000
AXUS43 KLBF 210710
MISLBF


WESTERN AND NORTH CENTRAL NEBRASKA HOURLY WEATHER ROUNDUP
NATIONAL WEATHER SERVICE NORTH PLATTE NE
100 AM CST SAT JAN 21 2017

NOTE: "FAIR" INDICATES FEW OR NO CLOUDS BELOW 12,000 FEET WITH NO
SIGNIFICANT WEATHER AND/OR OBSTRUCTIONS TO VISIBILITY.

NOTE: STATIONS NOT REPORTING VARIABLES SUCH AS SKY/WEATHER OR
PRESSURE ARE PROVIDED BY RAWS AND APRS NETWORKS AND ARE NOT UNDER
NATIONAL WEATHER SERVICE QUALITY CONTROL.

...OBSERVATIONS IN AND NEAR THE EASTERN PANHANDLE OF NEBRASKA...

CITY           SKY/WX    TMP DP  RH WIND       PRES   REMARKS
PINE RIDGE     CLOUDY    33  32  96 SW6       29.37S WCI  28
CHADRON        CLOUDY    35  31  85 W8        29.38F WCI  29
ALLIANCE       PTCLDY    27  25  92 W8        29.38F WCI  19
SIDNEY         CLEAR     28  22  78 NW9       29.40F WCI  19
CRESCENT LAKE    N/A     31  31 100 W7          N/A  WCI  24
$$

...OBSERVATIONS IN NORTHERN NEBRASKA AND FAR SOUTHERN SOUTH DAKOTA...

CITY           SKY/WX    TMP DP  RH WIND       PRES   REMARKS
WINNER         CLOUDY    30  27  88 NW10      29.34S WCI  21
VALENTINE      CLOUDY    34  29  82 W8        29.34F WCI  27
THEDFORD       CLOUDY    37  35  94 SW5       29.36F WCI  33
AINSWORTH      PTCLDY    34  31  90 W7        29.34F WCI  28
O`NEILL        CLOUDY    35  35 100 SW5       29.35F FOG     WCI  31
ORD            CLOUDY    36  33  89 W5        29.35F WCI  32
BROKEN BOW     MOCLDY    36  32  85 W8        29.36F WCI  30
VALENTINE NWR    N/A     34  32  92 SW6         N/A  WCI  29
BUTTE            N/A     33  31  94 CALM        N/A
HALSEY           N/A     35  34  96 W6          N/A  WCI  30
SARGENT          N/A     35  26  69 W3          N/A
CHAMBERS         N/A     35  34  98 SW3         N/A
EWING            N/A     38  37  97 SW5         N/A  WCI  34
$$

...OBSERVATIONS IN SOUTHWEST NEBRASKA AND FAR NORTHEAST COLORADO...

CITY           SKY/WX    TMP DP  RH WIND       PRES   REMARKS
HOLYOKE        FAIR      34  32  93 SW6       29.43F WCI  29
IMPERIAL       PTCLDY    34  32  92 NW5       29.42S WCI  30
OGALLALA       PTCLDY    33  32  96 W6        29.40F WCI  28
NORTH PLATTE   CLOUDY    32  30  92 NW3       29.40F
MCCOOK         MOCLDY    35  33  92 W10       29.43S WCI  27
LEXINGTON      CLOUDY    33  32  96 W5        29.39F WCI  29
STAPLETON        N/A     33  31  93 CALM        N/A
GOTHENBURG       N/A     35  32  88 W3          N/A
CALLAWAY         N/A     34  31  90 NW8         N/A  WCI  27
$$

...OBSERVATIONS IN CENTRAL LINCOLN COUNTY AREA...

CITY           SKY/WX    TMP DP  RH WIND       PRES   REMARKS
N.P. AIRPORT   CLOUDY    32  30  92 NW3       29.40F
N.P. DOWNTOWN    N/A     35  33  93 CALM        N/A
N.P. SOUTHEAST   N/A     35  32  90 CALM        N/A
N.P. HILLCREST   N/A     34  33  95 NW3         N/A
$$

...SOME OBSERVATIONS FROM AROUND THE REGION...

CITY           SKY/WX    TMP DP  RH WIND       PRES   REMARKS
LARAMIE        CLOUDY    10   6  84 S7        29.40S WCI  -1
CHEYENNE       CLEAR     24  14  65 SW8       29.41S WCI  15
DENVER         PTCLDY    28  23  81 S9        29.41S WCI  19
AKRON          CLEAR     26  20  77 SW7       29.43F WCI  18
SCOTTSBLUFF    CLEAR     28  23  81 N7        29.40F WCI  21
RAPID CITY     CLOUDY    34  31  88 N18       29.35S WCI  23
BISMARCK       CLOUDY    32  30  92 NW5       29.32F FOG     WCI  27
PIERRE         CLOUDY    25  23  92 W10       29.33S FOG     WCI  15
SIOUX FALLS    LGT RAIN  37  37 100 SE8       29.37F FOG     WCI  31
OMAHA          DRZL/FOG  41  37  86 CALM      29.39F VSB 1
GRAND ISLAND   PTCLDY    34  34 100 W7        29.37F WCI  28
KANSAS CITY    CLEAR     38  35  89 S8        29.41F WCI  32
WICHITA        CLEAR     35  35 100 W7        29.49S WCI  29
OKLAHOMA CITY  PTCLDY    47  32  56 SW8       29.57R
DALLAS         PTCLDY    55  48  77 S8        29.60F
AMARILLO       CLOUDY    43  31  62 SW14      29.57F
DODGE CITY     CLEAR     34  32  92 W7        29.49S WCI  28
HAYS           CLEAR     35  33  92 SW9       29.46S WCI  28
GOODLAND       CLEAR     30  28  92 W8        29.45F WCI  22
$$




USA.gov is the U.S. government's official web portal to all federal, state and local government web resources and services.